Location: Home
(42.5358°N, 72.7383°W)
Time: 07:05:15
(UTC-05:00)

Transit 4A - Pass Details

Date: 07 December 2021
Orbit: 863 x 981 km, 66.8° (Epoch: 26 January)

Event Time Altitude Azimuth Distance (km) Brightness Sun altitude
Exits shadow 04:02:27 19° 175° (S) 2,160 9.8 -33.2°
Drops below altitude 10° 04:04:04 10° 170° (S) 2,721 10.4 -32.9°
Sets 04:06:41 0° 166° (SSE) 3,668 11.2 -32.4°
